TimeEST,TemperatureF,Dew PointF,Humidity,Sea Level PressureIn,VisibilityMPH,Wind Direction,Wind SpeedMPH,Gust SpeedMPH,PrecipitationIn,Events,Conditions,WindDirDegrees,DateUTC
12:07 AM,32.0,28.4,87,30.29,3.0,South,4.6,-,0.05,Snow,Light Snow,180,2014-01-10 05:07:00
12:47 AM,32.0,28.4,87,30.27,1.5,South,4.6,-,0.00,Snow,Light Snow,180,2014-01-10 05:47:00
12:51 AM,31.1,28.9,92,30.32,1.5,South,4.6,-,0.00,Snow,Light Snow,180,2014-01-10 05:51:00
1:28 AM,32.0,28.4,87,30.26,1.5,South,4.6,-,N/A,Snow,Light Snow,180,2014-01-10 06:28:00
1:51 AM,31.1,30.0,96,30.26,2.0,South,4.6,-,0.01,Snow,Light Snow,190,2014-01-10 06:51:00
2:51 AM,31.1,30.0,96,30.30,2.0,South,4.6,-,0.00,Snow,Light Snow,190,2014-01-10 07:51:00
3:51 AM,32.0,31.1,96,30.29,2.0,SSE,6.9,-,0.01,Snow,Light Snow,160,2014-01-10 08:51:00
4:51 AM,32.0,31.1,96,30.27,2.0,South,9.2,-,0.00,Snow,Light Snow,190,2014-01-10 09:51:00
5:51 AM,32.0,31.1,96,30.26,2.0,South,9.2,-,0.00,Snow,Light Snow,190,2014-01-10 10:51:00
6:51 AM,34.0,33.1,96,30.26,3.0,South,9.2,-,0.00,,Overcast,190,2014-01-10 11:51:00
7:51 AM,36.0,32.0,86,30.26,3.0,South,10.4,-,N/A,,Overcast,180,2014-01-10 12:51:00
8:51 AM,36.0,34.0,93,30.27,3.0,South,8.1,-,N/A,,Overcast,190,2014-01-10 13:51:00
9:38 AM,35.6,33.8,93,30.23,2.5,South,5.8,-,N/A,,Overcast,190,2014-01-10 14:38:00
9:51 AM,36.0,34.0,93,30.27,2.5,South,8.1,-,N/A,,Overcast,190,2014-01-10 14:51:00
10:16 AM,35.6,33.8,93,30.24,2.5,South,9.2,-,N/A,,Overcast,180,2014-01-10 15:16:00
10:43 AM,35.6,33.8,93,30.23,2.0,South,6.9,-,N/A,,Overcast,180,2014-01-10 15:43:00
10:51 AM,35.1,33.1,92,30.27,2.0,South,4.6,-,N/A,,Overcast,180,2014-01-10 15:51:00
11:21 AM,35.6,33.8,93,30.22,0.5,South,4.6,-,N/A,,Overcast,180,2014-01-10 16:21:00
11:51 AM,37.0,36.0,96,30.24,0.5,South,3.5,-,N/A,Fog,Fog,190,2014-01-10 16:51:00
12:32 PM,37.4,37.4,100,30.17,0.1,South,5.8,-,N/A,Fog,Fog,190,2014-01-10 17:32:00
12:51 PM,37.0,37.0,100,30.20,0.1,South,3.5,-,N/A,Fog,Fog,180,2014-01-10 17:51:00
1:51 PM,39.0,37.9,96,30.15,0.2,South,5.8,-,N/A,Fog,Fog,180,2014-01-10 18:51:00
2:51 PM,39.9,39.0,97,30.14,0.2,South,8.1,-,N/A,Fog,Fog,190,2014-01-10 19:51:00
3:51 PM,41.4,40.5,97,30.12,0.1,South,6.9,-,N/A,Fog,Fog,190,2014-01-10 20:51:00
4:51 PM,41.4,40.5,97,30.09,0.1,South,6.9,-,N/A,Fog,Fog,170,2014-01-10 21:51:00
5:51 PM,40.3,40.3,100,30.07,0.1,South,6.9,-,N/A,Fog,Fog,170,2014-01-10 22:51:00
6:51 PM,41.2,41.2,100,30.03,0.1,SSE,6.9,-,N/A,Fog,Fog,150,2014-01-10 23:51:00
7:14 PM,41.0,41.0,100,29.98,0.2,SSE,6.9,-,N/A,Fog,Fog,150,2014-01-11 00:14:00
7:37 PM,41.0,41.0,100,29.97,1.0,SSE,6.9,-,N/A,,Mist,150,2014-01-11 00:37:00
7:51 PM,41.5,41.5,100,29.99,1.0,SSE,6.9,-,N/A,,Overcast,150,2014-01-11 00:51:00
8:51 PM,42.3,42.3,100,29.96,1.0,South,6.9,-,N/A,,Overcast,170,2014-01-11 01:51:00
9:03 PM,42.8,42.8,100,29.92,4.0,South,6.9,-,N/A,,Overcast,170,2014-01-11 02:03:00
9:20 PM,42.8,42.8,100,29.90,4.0,South,6.9,-,N/A,,Overcast,170,2014-01-11 02:20:00
9:51 PM,43.7,43.7,100,29.90,5.0,SSE,6.9,-,N/A,,Overcast,150,2014-01-11 02:51:00
10:51 PM,44.2,44.2,100,29.86,7.0,SSE,9.2,-,N/A,,Overcast,160,2014-01-11 03:51:00
11:51 PM,46.0,44.2,93,29.82,10.0,SSE,11.5,-,N/A,,Overcast,150,2014-01-11 04:51:00